EHI
0 0 0 0 0 0 0 0 0 0 0 0 0 0 0 0 0 0 0 0 0 0 0 0 0 0 0 0 0 0 0 0 0 0 0 0 0 0 0 0 0 0 0 0
0 0 0 0 0 0 0 0 0 0 0 0 0 0 0 0 0 0 0 0 0 0 0 0 0 0 0 0 0 0 0 0 0 0 0 0 0 0 0 0 0 0 0 0
0 0 0 0 0 0 0 0 0 0 0 0 0 0 0 0 0 0 0 0 0 0 0 0 0 0 0 0 0 0 0 0 0 0 0 0 0 0 0 0 0 0 0 0
0 0 0 0 0 0 0 0 0 0 0 0 0 0 0 0 0 0 0 0 0 0 0 0 0 0 0 0 0 0 0 0 0 0 0 0 0 0 0 0 0 0 0 0
0 0 0 0 0 0 0 0 0 0 0 0 0 0 0 0 0 0 0 0 0 0 0 0 0 0 0 0 0 0 0 0 0 0 0 0 0 0 0 0 0 0 0 0
0 0 0 0 0 0 0 0 0 0 0 0 0 0 0 0 0 0 0 0 0 0 0 0 0 0 0 0 0 0 0 0 0 0 0 0 0 0 0 0 0 0 0 0
0 0 0 0 0 0 0 0 0 0 0 0 0 0 0 0 0 0 0 0 0 0 0 0 0 0 0 0 0 0 0 0 0 0 0 0 0 0 0 0 0 0 0 0
0 0 0 0 0 0 0 0 0 0 0 0 0 0 0 0 0 0 0 0 0 0 0 0 0 0 0 0 0 0 0 0 0 0 0 0 0 0 0 0 0 0 0 0
0 0 0 0 0 0 0 0 0 0 0 0 0 0 0 0 0 0 0 0 0 0 0 0 0 0 0 0 0 0 0 0 0 0 0 0 0 0 0 0 0 0 0 0
0 0 0 0 0 0 0 0 0 0 0 0 0 0 0 0 0 0 0 0 0 0 0 0 0 0 0 0 0 0 0 0 0 0 0 0 0 0 0 0 0 0 0 0
0 0 0 0 0 0 0 0 0 0 0 0 0 0 0 0 0 0 0 0 0 0 0 0 0 0 0 0 0 0 0 0 0 0 0 0 0 0 0 0 0 0 0 0
0 0 0 0 0 0 0 0 0 0 0 0 0 0 0 0 0 0 0 0 0 0 0 0 0 0 0 0 0 0 0 0 0 0 0 0 0 0 0 0 0 0 0 0
0 0 0 0 0 0 0 0 0 0 0 0 0 0 0 0 0 0 0 0 0 0 0 0 0 0 0 0 0 0 0 0 0 0 0 0 0 0 0 0 0 0 0 0
0 0 0 0 0 0 0 0 0 0 0 0 0 0 0 0 0 0 0 0 0 0 0 0 0 0 0 0 0 0 0 0 0 0 0 0 0 0 0 0 0 0 0 0
0 0 0 0 0 0 0 0 0 0 0 0 0 0 0 0 0 0 0 0 0 0 0 0 0 0 0 0 0 0 0 0 0 0 0 0 0 0 0 0 0 0 0 0
0 0 0 0 0 0 0 0 0 0 0 0 0 0 0 0 0 0 0 0 0 0 0 0 0 0 0 0 0 0 0 0 0 0 0 0 0 0 0 0 0 0 0 0
0 0 0 0 0 0 0 0 0 0 0 0 0 0 0 0 0 0 0 0 0 0 0 0 0 0 0 0 0 0 0 0 0 0 0 0 0 0 0 0 0 0 0 0
0 0 0 0 0 0 0 0 0 0 0 0 0 0 0 0 0 0 0 0 0 0 0 0 0 0 0 0 0 0 0 0 0 0 0 0 0 0 0 0 0 0 0 0
0 0 0 0 0 0 0 0 0 0 0 0 0 0 0 0 0 0 0 0 0 0 0 0 0 0 0 0 0 0 0 0 0 0 0 0 0 0 0 0 0 0 0 0
0 0 0 0 0 0 0 0 0 0 0 0 0 0 0 0 0 0 0 0 0 0 0 0 0 0 0 0 0 0 0 0 0 0 0 0 0 0 0 0 0 0 0 0
0 0 0 0 0 0 0 0 0 0 0 0 0 0 0 0 0 0 0 0 0 0 0 0 0 0 0 0 0 0 0 0 0 0 0 0 0 0 0 0 0 0 0 0
0 0 0 0 0 0 0 0 0 0 0 0 0 0 0 0 0 0 0 0 0 0 0 0 0 0 0 0 0 0 0 0 0 0 0 0 0 0 0 0 0 0 0 0
0 0 0 0 0 0 0 0 0 0 0 0 0 0 0 0 0 0 0 0 0 0 0 0 0 0 0 0 0 0 0 0 0 0 0 0 0 0 0 0 0 0 0 0
0 0 0 0 0 0 0 0 0 0 0 0 0 0 0 0 0 0 0 0 0 0 0 0 0 0 0 0 0 0 0 0 0 0 0 0 0 0 0 0 0 0 0 0
0 0 0 0 0 0 0 0 0 0 0 0 0 0 0 0 0 0 0 0 0 0 0 0 0 0 0 0 0 0 0 0 0 0 0 0 0 0 0 0 0 0 0 0
0 0 0 0 0 0 0 0 0 0 0 0 0 0 0 0 0 0 0 0 0 0 0 0 0 0 0 0 0 0 0 0 0 0 0 0 0 0 0 0 0 0 0 0
0 0 0 0 0 0 0 0 0 0 0 0 0 0 0 0 0 0 0 0 0 0 0 0 0 0 0 0 0 0 0 0 0 0 0 0 0 0 0 0 0 0 0 0
Wind_Speed
5 5 3 4 5 6 8 8 9 9 9 12 10 9 8 6 5 5 5 6 7 7 6 5 5 5 4 4 4 3 2 3 4 3 3 3 3 3 3 3 3 4 4 4
3 2 3 4 7 7 8 6 7 6 10 11 7 4 5 6 7 7 8 8 8 7 7 7 7 6 5 5 4 3 3 4 3 3 2 3 3 3 3 3 3 3 4 4
4 4 3 6 9 9 7 7 9 10 13 6 4 7 9 9 9 10 9 8 8 8 8 8 7 7 6 6 4 3 4 3 3 2 3 3 3 3 3 3 3 3 4 4
1 2 5 10 4 5 7 8 9 9 8 7 9 7 5 7 9 9 8 8 8 7 7 6 6 5 5 4 3 3 3 3 3 3 3 3 2 3 3 2 2 3 4 4
3 2 7 10 5 5 5 8 8 10 9 5 2 1 4 6 8 9 8 8 7 7 6 6 6 6 5 4 3 3 4 4 4 3 3 2 3 3 3 2 3 3 3 3
4 2 6 10 4 3 3 6 6 7 7 5 7 3 7 6 7 7 6 5 5 5 5 5 5 6 6 5 4 4 5 4 3 3 3 3 3 3 2 2 3 3 3 3
5 4 9 10 4 4 3 8 5 5 7 9 10 9 5 4 5 6 5 5 6 6 6 5 5 7 6 5 5 5 4 3 3 3 3 3 2 2 2 2 2 3 3 4
5 4 10 5 4 6 8 5 3 4 5 9 9 4 3 5 6 7 6 6 7 6 5 4 6 7 6 5 5 3 2 2 2 2 2 1 2 2 1 1 2 3 3 4
10 10 7 3 6 6 3 5 5 4 5 7 6 6 6 6 6 6 7 6 6 7 6 4 4 6 6 5 3 3 3 2 1 1 1 1 1 1 1 1 1 2 2 3
5 9 8 7 7 6 5 6 7 5 5 6 8 7 7 6 6 6 6 7 6 7 7 5 4 4 4 3 4 4 3 2 1 0 0 1 0 0 0 0 1 1 1 2
6 9 9 7 5 5 5 5 6 5 5 7 8 7 8 8 8 7 6 6 6 7 7 6 5 4 3 3 5 4 3 2 1 1 0 0 1 0 0 0 1 1 1 1
9 8 6 9 8 6 6 8 7 6 5 5 8 9 8 8 7 7 7 7 7 7 7 6 5 4 3 4 5 5 3 2 1 1 1 1 1 2 2 2 4 4 3 2
9 7 7 9 9 7 7 9 8 7 8 7 6 7 8 7 7 7 8 8 9 8 7 7 6 5 4 4 5 5 4 3 2 2 1 1 1 1 1 3 5 7 8 8
6 5 7 7 9 9 9 9 7 6 6 6 5 5 7 6 6 8 9 9 8 8 8 7 6 5 4 5 6 5 4 4 4 2 2 2 2 1 1 2 2 3 5 8
7 6 9 10 10 9 7 5 5 5 4 4 4 6 8 9 9 9 7 8 8 8 8 7 7 5 4 5 6 6 4 3 3 2 2 2 2 2 2 2 2 2 3 5
10 8 7 7 9 10 7 5 6 7 5 5 5 6 6 7 7 7 7 10 11 10 9 8 7 5 5 6 6 5 4 7 6 3 3 3 2 3 2 2 2 2 3 3
7 8 9 10 11 10 8 8 8 8 6 5 6 5 7 8 8 7 6 6 7 8 7 8 7 5 6 6 6 5 4 5 8 5 3 3 3 3 3 3 2 2 2 3
5 6 7 8 10 10 10 8 6 5 5 4 5 7 9 10 11 10 8 8 8 6 5 5 6 6 6 6 6 5 5 4 4 4 3 3 3 3 3 3 3 2 2 3
7 8 9 10 9 8 8 7 6 5 3 4 7 8 8 8 9 9 10 10 10 8 5 5 11 8 6 7 8 5 5 5 4 4 3 5 4 3 2 2 2 2 2 2
10 10 10 10 10 8 8 7 5 2 2 4 6 6 6 7 9 10 9 7 6 5 7 8 8 6 6 7 9 5 5 6 5 4 4 3 3 2 2 2 2 2 2 2
10 11 11 11 11 9 7 6 3 2 1 4 6 7 7 7 8 9 9 6 4 6 8 11 7 5 5 7 9 5 5 5 5 4 4 3 3 3 2 2 2 2 1 1
8 9 10 9 9 9 7 5 3 1 1 2 4 6 7 7 7 6 5 5 7 10 7 5 5 8 9 9 5 5 5 5 4 4 4 3 3 3 2 2 2 1 1 1
7 7 8 8 7 7 7 5 3 1 1 2 4 6 7 7 6 7 5 4 6 12 7 5 9 13 13 7 5 5 5 5 4 4 4 3 3 3 3 2 2 2 1 1
7 7 7 6 5 5 5 5 4 2 1 1 2 4 6 6 3 2 3 10 12 12 6 8 13 14 12 5 5 5 5 4 4 4 4 3 3 3 2 2 2 1 1 1
7 7 6 6 5 4 4 3 2 2 1 1 1 2 3 4 4 5 5 7 12 11 6 10 15 13 7 5 5 5 4 4 5 4 4 4 3 3 3 2 2 2 1 1
6 6 6 5 5 4 3 2 2 1 1 1 1 1 2 2 4 5 5 6 8 10 6 4 6 7 5 5 5 5 4 4 4 4 4 4 4 3 3 2 3 2 2 2
6 5 4 4 4 3 2 2 2 3 2 3 2 2 3 4 4 5 6 5 5 5 4 4 4 4 5 5 5 4 4 4 4 4 4 3 3 3 3 3 2 2 2 2
Wind_Direction
236 240 217 232 223 186 191 195 197 230 231 250 245 232 233 225 212 202 208 206 204 207 211 212 215 220 221 229 230 221 222 245 261 275 285 293 308 316 323 330 332 333 339 343
291 291 232 252 250 219 217 213 220 243 258 250 250 228 228 220 202 205 212 211 208 206 204 206 210 213 214 222 222 202 216 242 261 277 286 289 298 310 322 326 330 338 342 340
269 306 -0 275 240 213 211 207 190 216 241 245 221 220 219 215 205 209 212 208 204 203 202 204 205 202 207 213 201 196 220 243 255 261 272 281 294 309 311 314 325 330 332 336
203 17 251 247 250 209 219 239 213 225 240 223 221 228 226 205 200 212 210 205 204 201 200 202 198 195 196 184 181 198 221 242 247 246 260 277 291 293 295 302 307 310 320 326
133 220 280 293 275 190 197 267 226 219 239 232 192 80 289 219 200 207 204 197 196 191 186 182 185 182 167 173 180 197 225 238 241 233 246 265 276 279 281 293 301 299 302 318
136 182 248 255 263 186 139 283 258 204 216 178 132 159 252 222 194 202 193 182 175 163 155 165 179 159 158 176 185 214 227 234 234 222 227 244 258 268 268 266 281 300 308 309
168 213 260 255 265 131 162 248 267 203 197 172 185 205 225 172 174 175 171 165 152 147 157 173 161 152 163 177 208 224 222 224 227 224 228 237 253 257 267 282 301 311 312 313
154 187 254 257 150 178 223 261 270 226 202 196 215 218 183 175 170 160 154 149 148 148 156 154 152 154 164 196 219 205 189 199 221 231 239 230 237 271 277 293 315 319 325 326
188 213 235 236 220 243 253 264 258 237 227 201 205 210 195 185 177 171 163 157 152 150 147 146 158 161 172 205 186 156 150 178 218 244 258 263 230 270 304 320 314 316 328 325
249 268 265 262 255 258 244 247 259 248 232 196 204 205 193 184 179 173 168 164 154 148 151 162 170 173 183 175 153 146 154 177 178 158 334 353 336 248 224 288 289 307 317 315
258 277 302 297 269 274 280 273 271 260 227 211 202 202 192 187 185 179 171 164 158 160 164 170 166 171 173 158 147 147 155 162 152 150 143 49 36 34 176 251 188 207 270 280
242 246 242 272 288 294 282 275 265 255 252 230 205 204 192 190 185 175 170 162 160 164 164 165 159 164 168 162 155 150 150 155 153 146 133 113 83 38 34 57 46 55 49 41
251 270 254 265 282 282 273 271 265 247 237 235 223 200 187 186 179 170 168 168 171 171 167 161 155 159 166 160 153 152 154 156 147 141 139 131 122 108 48 24 38 43 39 38
275 294 287 281 281 287 279 276 269 257 246 229 214 192 178 173 167 171 178 179 167 158 157 157 153 159 161 149 142 143 144 144 140 140 136 128 123 116 106 80 40 14 17 30
303 286 266 279 289 293 291 285 275 265 253 234 201 185 177 175 179 180 168 153 146 148 155 154 152 159 153 144 142 143 141 140 133 124 118 115 109 100 92 85 75 40 18 21
308 309 304 300 299 299 298 281 262 259 246 225 205 196 184 169 156 147 150 153 153 160 163 158 158 160 148 140 135 132 136 137 129 120 109 102 98 99 95 90 80 62 42 20
329 332 330 322 312 303 291 274 260 251 239 221 204 173 147 138 137 144 150 151 148 149 151 152 155 148 141 140 136 133 127 127 123 110 105 106 104 104 102 98 90 74 48 36
307 300 301 300 301 303 302 295 282 261 239 218 166 153 157 160 163 161 152 137 127 124 135 146 146 137 136 136 134 130 126 122 121 120 116 109 108 106 105 103 97 87 56 42
341 338 335 330 320 308 305 304 294 271 236 172 166 171 170 164 157 152 147 146 148 153 168 162 150 139 137 145 138 129 129 125 120 118 118 118 110 105 107 106 100 90 78 65
346 344 342 338 335 328 317 316 311 282 205 167 158 151 151 154 152 151 150 154 164 160 154 151 142 138 140 147 139 131 133 132 131 128 123 122 123 121 118 116 112 103 87 75
339 337 339 340 336 333 328 322 316 298 209 165 163 164 159 154 153 152 149 151 163 146 149 151 144 143 144 147 140 134 136 136 136 137 138 138 137 135 134 130 124 121 114 99
327 327 327 329 330 330 330 330 334 4 79 131 136 140 142 147 150 147 151 156 159 156 147 144 146 155 156 146 136 138 139 139 140 142 146 150 151 152 153 151 149 149 147 152
315 314 316 319 320 319 327 339 349 1 132 155 156 158 158 157 157 154 158 162 156 160 151 155 164 162 156 143 141 143 145 147 150 153 156 158 161 162 162 163 165 167 174 187
310 311 312 313 318 325 327 329 340 346 5 122 156 158 150 143 138 142 139 159 165 160 156 167 168 166 156 144 146 147 151 154 155 156 157 158 161 163 165 167 171 181 188 203
297 301 306 313 312 302 296 310 338 2 33 66 122 144 150 152 154 156 152 159 166 159 157 173 172 166 154 148 153 156 160 166 166 161 162 163 167 171 174 177 181 189 198 213
286 287 284 279 276 276 275 275 275 265 196 160 149 145 137 132 138 144 149 156 162 161 158 158 159 158 154 157 160 162 165 169 169 167 168 169 172 173 177 186 196 199 207 219
280 279 280 284 282 269 255 242 241 239 213 187 182 174 159 151 149 152 152 152 155 155 153 153 152 155 159 161 161 161 162 163 164 167 170 171 173 178 185 190 192 198 205 221